Location: Heppenheim
(49.6410°N, 8.6370°E)
Time: 16:39:58
(UTC+02:00)

ISS - Pass Details

Date: 13 May 2026
Orbit: 414 x 424 km, 51.6° (Epoch: 21 May)

Event Time Altitude Azimuth Distance (km) Brightness Sun altitude
Rises 21:42:34 0° 250° (WSW) 2,345 0.5 -6.4°
Reaches altitude 10° 21:44:39 10° 250° (WSW) 1,484 -0.5 -6.7°
Maximum altitude 21:47:59 87° 167° (SSE) 420 -3.8 -7.1°
Drops below altitude 10° 21:51:21 10° 73° (ENE) 1,491 -1.3 -7.5°
Sets 21:53:26 0° 73° (ENE) 2,357 -0.3 -7.8°
